Theta_e
330 323 320 314 304 296 292 295 300 302 303 308 313 313 313 316 311 304 329 336 340 340 341 344 347 348 347 346 346 346 346 344 343 342 342 341 339 337 337 336 336 334 334 334 334 334 335 335 335
325 321 314 307 297 291 292 295 300 304 308 315 313 312 313 310 323 327 330 339 341 339 341 343 344 347 346 344 344 345 345 343 342 342 341 339 339 337 335 336 336 336 334 334 334 335 334 334 334
316 319 308 301 295 292 292 297 301 307 309 305 309 314 314 316 324 328 334 340 340 339 340 341 344 347 345 344 344 343 343 344 342 340 340 339 339 338 336 336 337 338 335 333 334 333 332 332 332
312 313 305 295 292 296 296 301 306 304 307 307 310 310 317 325 328 331 339 340 338 338 339 340 344 346 345 345 343 342 341 342 342 341 340 339 337 339 337 338 336 336 337 335 333 332 331 331 331
313 307 297 294 295 297 299 306 305 304 304 304 309 306 313 325 332 337 338 339 337 337 338 340 343 344 345 345 343 343 342 342 341 340 339 339 338 338 339 338 337 335 334 334 333 332 331 332 332
308 304 296 292 294 298 302 306 306 304 304 307 310 310 314 327 333 335 337 337 338 337 338 339 337 340 343 344 344 344 342 341 340 339 338 338 338 337 337 336 336 333 333 334 332 331 330 331 332
306 302 296 295 295 298 303 307 303 304 305 305 313 309 313 322 332 335 335 336 337 338 338 337 337 336 336 338 339 339 341 340 340 339 338 336 336 336 336 336 337 335 332 330 330 331 330 329 328
306 304 298 296 296 297 303 305 307 305 305 311 316 309 312 322 330 333 335 335 335 336 336 335 334 334 335 334 332 333 336 338 338 337 334 332 332 333 332 330 333 336 335 334 333 333 331 329 329
306 299 297 299 298 300 303 304 305 307 307 309 313 316 319 327 331 332 332 333 334 334 334 334 333 332 332 332 330 328 330 331 332 331 328 326 326 327 326 326 330 334 334 334 333 332 332 331 329
299 295 299 301 305 302 303 305 307 307 309 310 314 320 325 327 330 329 329 329 331 332 331 333 333 331 331 334 331 328 330 328 327 327 327 326 324 323 325 322 325 329 329 331 332 332 330 326 320
298 294 299 301 308 308 305 304 306 306 305 311 313 319 324 324 327 328 329 330 330 332 332 333 332 332 330 331 328 327 326 326 325 324 325 326 324 321 320 320 320 320 320 320 324 322 321 320 319
296 300 300 302 308 308 305 307 303 306 307 312 318 324 324 324 324 326 327 327 328 329 331 332 332 331 330 331 328 327 326 324 323 324 323 323 322 320 319 318 319 318 319 318 317 317 318 317 319
297 298 300 303 304 305 307 305 304 306 307 311 322 324 324 324 325 326 328 328 329 328 331 332 332 331 332 330 329 327 327 325 324 324 324 323 321 319 319 319 318 318 318 318 317 317 317 317 318
296 298 297 299 300 303 301 301 303 307 309 311 320 321 323 324 325 324 324 325 328 330 330 331 332 333 332 332 330 329 328 327 325 324 324 324 323 321 320 318 318 317 317 317 316 316 315 315 316
299 294 295 295 299 300 302 297 299 304 307 313 316 319 320 322 323 324 326 326 327 330 331 330 332 333 332 331 330 330 330 330 328 328 326 324 324 322 321 320 318 318 318 318 317 316 316 315 315
293 293 287 292 298 299 300 290 298 303 304 306 311 311 316 319 322 325 327 327 327 328 329 330 333 332 331 332 331 331 330 329 329 328 328 327 326 325 322 321 321 320 319 317 316 316 314 313 313
289 282 286 289 296 297 296 292 298 299 300 301 301 304 309 312 316 319 323 325 327 327 329 329 330 330 331 332 331 329 328 328 328 329 329 328 328 327 326 324 323 321 320 317 316 314 313 312 312
284 283 286 287 290 295 294 293 296 295 295 296 296 298 298 302 310 317 317 322 324 325 327 329 330 331 330 330 329 326 326 326 328 328 328 329 328 329 327 327 326 324 322 320 317 314 313 313 312
289 286 285 286 290 289 289 291 297 298 294 295 295 295 296 296 302 303 307 313 317 319 322 326 328 329 329 327 326 326 326 327 328 329 329 328 329 328 329 328 326 325 323 323 321 318 316 314 313
289 286 283 286 290 289 287 287 292 295 295 296 297 295 295 296 298 300 300 301 307 317 320 324 327 328 329 330 329 326 327 326 328 328 329 329 329 328 331 329 327 326 325 324 322 320 319 318 317
288 285 283 284 287 287 284 283 285 290 293 295 295 295 295 296 297 298 298 299 302 307 313 319 323 326 329 329 326 322 323 320 327 328 328 328 328 328 331 330 330 328 327 325 324 322 321 320 319
285 289 289 287 285 280 283 277 281 285 287 290 294 294 295 296 297 298 298 298 298 302 305 308 311 315 320 325 324 322 325 322 320 323 327 326 326 327 328 328 328 328 327 326 326 325 323 322 320
286 291 289 288 284 281 279 277 279 281 282 284 287 291 294 297 297 296 297 298 298 300 302 304 306 307 309 308 317 320 318 320 319 319 321 321 322 324 324 325 326 325 325 326 325 324 323 324 322
290 288 286 285 283 277 280 279 278 281 283 285 288 290 291 292 292 292 295 297 302 305 306 306 306 304 306 309 309 307 309 310 313 315 316 316 312 311 315 317 317 318 317 318 319 322 322 322 323
287 283 273 271 269 273 279 279 283 284 286 287 289 289 289 290 290 291 296 299 302 303 303 303 302 300 302 303 304 305 307 309 311 313 313 307 304 303 306 308 309 308 307 310 311 310 309 310 309
286 284 276 270 270 273 280 277 280 288 291 291 290 289 290 290 291 293 296 299 300 300 299 299 299 297 298 299 298 298 299 300 300 302 301 299 298 300 302 302 302 302 304 304 304 305 304 304 303
285 282 285 280 275 273 276 279 284 287 288 289 290 291 291 289 293 296 298 299 297 295 295 296 295 294 294 294 294 293 294 294 294 294 295 295 296 297 298 298 296 298 298 299 298 298 297 298 297
287 289 281 279 266 265 275 276 277 282 286 288 288 289 290 291 294 296 295 294 294 293 292 292 292 291 290 290 290 290 291 292 292 292 292 292 293 295 294 294 294 294 294 294 294 294 294 292 292
285 284 284 282 278 272 270 274 281 284 286 287 288 289 290 292 293 294 292 291 291 289 289 289 289 288 287 287 287 288 288 288 288 289 290 291 292 292 292 292 291 290 290 291 290 290 289 289 288
290 287 286 280 277 279 277 275 285 285 286 285 288 289 290 292 292 291 290 288 288 287 287 287 287 286 286 285 285 285 285 285 285 285 285 287 287 289 289 289 288 287 287 286 286 285 286 286 286
Wind_Speed
8 3 3 5 4 5 2 4 1 3 2 2 2 5 6 3 3 4 1 7 14 12 10 9 15 15 15 15 15 14 14 14 14 14 14 14 14 13 12 11 15 11 12 12 12 11 10 10 10
5 3 5 3 6 3 5 2 5 3 4 7 6 4 5 2 3 6 8 9 15 12 10 8 13 15 16 15 14 13 13 14 15 14 14 13 12 14 12 11 10 11 11 11 11 10 9 9 10
3 1 4 5 4 4 5 4 6 4 6 2 4 4 3 4 2 8 5 13 12 11 8 8 11 14 15 14 13 13 11 12 13 12 15 13 9 13 9 12 6 11 12 10 10 8 7 8 10
2 4 5 5 3 3 4 5 5 6 1 4 4 6 2 2 7 7 14 13 11 9 8 11 13 14 14 13 13 13 13 12 10 10 9 11 11 10 12 10 6 9 11 10 8 7 6 7 8
4 3 4 3 2 1 2 4 7 5 5 3 1 3 2 2 5 14 14 13 12 8 6 8 11 12 13 12 13 12 12 12 12 11 11 9 11 7 8 12 7 9 8 8 7 5 4 4 5
4 4 4 2 3 1 1 5 5 5 4 4 6 4 3 2 10 9 11 11 10 12 9 7 9 10 11 11 12 12 12 12 13 12 11 10 8 8 6 11 10 8 8 8 6 4 3 3 4
5 4 5 3 3 2 6 7 5 7 7 4 9 6 2 4 7 9 8 6 7 8 9 6 6 7 9 9 10 10 11 12 12 13 13 10 7 6 4 7 8 10 8 7 6 4 2 1 1
4 4 4 3 5 5 5 7 6 7 5 3 4 6 5 6 9 8 8 7 7 6 7 7 6 5 6 5 7 7 8 11 10 10 10 9 8 8 5 4 4 8 8 6 7 7 4 3 3
2 4 3 4 6 4 5 5 3 1 7 1 3 6 5 14 12 9 6 6 8 6 7 7 7 6 5 5 5 6 6 7 7 6 8 6 3 5 6 5 5 4 5 7 7 6 7 5 5
4 3 9 3 2 3 4 5 9 5 4 1 1 3 10 16 15 14 12 12 11 12 7 8 9 7 6 5 5 5 4 3 3 4 5 4 5 4 5 6 7 6 7 7 7 7 8 6 2
4 5 4 2 2 2 6 4 1 8 4 7 10 10 13 14 13 14 12 13 15 12 8 10 9 9 8 5 4 2 3 3 3 5 5 4 3 3 2 2 2 3 5 2 3 3 2 4 3
3 5 3 1 0 1 5 1 2 6 7 7 10 20 16 15 14 15 14 11 11 9 11 10 10 9 9 5 5 5 4 4 3 4 6 4 3 4 4 3 4 4 3 4 3 2 4 5 5
4 5 3 1 3 1 0 2 3 6 3 3 11 12 17 17 16 12 11 8 8 10 11 11 10 10 9 9 6 5 6 5 6 5 6 4 4 4 4 4 4 4 3 3 4 4 4 5 5
6 6 3 2 3 1 1 2 1 5 3 5 13 13 12 14 16 8 8 11 11 11 12 10 11 10 9 9 8 7 6 6 5 5 6 7 5 4 4 4 4 4 4 4 4 4 4 4 4
3 4 1 5 5 4 3 5 8 2 4 8 10 12 11 12 9 14 16 14 14 12 9 12 12 10 10 10 8 6 6 6 6 6 7 7 7 7 6 5 4 4 4 5 4 4 3 4 4
5 3 4 2 7 4 8 7 10 8 6 7 8 7 8 10 12 14 12 11 10 9 12 11 11 11 11 10 7 6 6 5 5 5 5 9 9 8 6 5 5 5 4 4 3 4 4 4 4
3 5 4 4 8 5 6 6 7 5 8 9 8 8 8 8 8 9 9 11 11 13 12 12 12 12 13 11 7 6 6 5 4 4 6 6 8 9 8 6 5 5 4 4 4 4 4 3 4
6 4 4 8 6 6 7 9 6 3 6 9 8 9 8 8 15 12 11 10 10 10 11 11 10 11 10 6 4 2 3 3 4 4 4 6 6 8 8 6 6 5 4 4 3 5 4 4 4
6 3 5 2 2 3 7 7 15 8 5 8 9 8 8 10 12 8 8 9 8 7 8 11 11 11 8 4 5 4 6 6 5 6 6 6 5 6 7 6 6 5 6 7 6 4 5 3 3
3 4 4 2 1 4 6 8 12 9 7 10 13 9 10 6 7 10 9 8 9 13 14 11 12 11 11 8 6 3 5 4 5 5 6 8 8 7 8 7 6 7 5 6 6 6 3 3 5
4 5 4 2 3 0 4 8 7 8 8 9 8 9 7 11 12 10 9 9 8 10 11 12 14 13 12 12 4 3 3 2 3 5 6 8 9 9 10 8 7 7 7 6 7 7 8 7 4
12 7 3 1 3 4 2 11 7 7 9 8 13 11 13 14 13 11 9 8 8 8 6 7 7 7 7 8 8 8 8 7 5 5 6 6 9 9 9 8 6 5 5 5 6 7 7 7 7
5 7 8 5 3 3 2 4 8 2 6 8 12 16 18 20 16 13 12 9 8 5 6 5 7 7 5 7 7 7 6 5 2 2 4 3 2 3 4 5 5 5 3 4 5 5 8 7 6
8 6 7 5 3 7 8 7 6 7 7 6 8 12 15 12 9 8 8 6 4 4 6 6 7 5 4 5 5 7 8 6 4 4 4 3 3 3 4 4 4 4 3 4 3 2 1 3 5
4 8 2 3 1 10 2 7 19 4 7 9 10 10 7 7 8 9 10 8 7 7 7 6 7 5 5 6 5 3 4 5 6 5 4 6 4 2 4 5 4 4 3 5 4 5 5 4 4
13 11 7 8 6 3 2 12 8 12 11 8 8 9 8 5 6 8 7 7 8 8 7 7 7 6 5 5 5 4 5 3 3 3 4 4 4 4 5 6 6 6 5 5 6 4 4 6 4
5 12 5 4 2 2 6 9 9 9 10 8 11 10 13 4 6 7 7 7 7 7 7 7 7 6 5 5 5 6 5 5 5 6 5 5 5 5 6 7 7 6 6 5 7 4 4 6 4
7 7 6 2 2 4 5 5 7 5 8 8 8 9 8 4 7 6 5 6 5 6 5 6 6 6 6 6 5 5 5 5 5 5 6 6 6 6 7 7 7 7 6 6 6 5 4 8 4
5 6 4 5 6 6 2 8 7 8 7 6 7 5 6 6 4 4 5 4 5 5 6 6 7 7 6 6 5 6 5 6 6 5 6 6 7 7 7 7 8 8 7 8 5 7 6 8 7
15 18 18 8 12 8 2 8 4 5 2 2 6 7 5 3 5 6 6 5 6 6 6 6 5 6 6 5 6 6 6 6 6 6 6 6 7 7 8 8 9 8 8 7 7 7 6 7 7
Wind_Direction
321 337 117 51 63 68 174 236 119 130 131 297 62 132 141 45 141 196 128 145 139 147 153 155 147 143 140 137 135 134 135 128 123 120 119 116 115 115 117 107 120 101 100 104 104 106 97 85 69
300 144 50 88 89 85 265 241 179 182 148 127 84 79 50 105 112 120 123 162 147 148 151 150 145 146 147 146 142 139 137 139 135 132 129 129 135 121 132 133 120 117 109 105 105 105 96 81 67
279 67 95 100 110 175 204 196 175 130 166 128 91 58 117 153 49 149 134 144 142 144 146 151 149 150 152 152 149 146 144 146 144 147 142 141 143 129 123 121 142 137 125 116 111 102 89 76 69
5 15 34 94 200 225 201 176 175 137 124 67 119 66 25 236 155 166 143 141 140 145 148 155 156 157 158 156 154 151 150 153 150 141 139 148 145 141 149 122 110 98 115 124 117 104 80 57 51
26 60 64 109 229 236 205 165 165 141 147 122 119 156 358 50 104 135 141 146 144 140 141 157 158 158 158 163 166 163 155 152 145 145 150 165 144 148 151 143 152 142 128 121 116 101 69 44 42
38 93 65 187 222 103 119 158 169 140 168 153 85 96 197 100 128 150 146 153 153 151 151 158 163 160 160 166 165 167 166 160 159 154 150 150 162 148 161 154 155 154 144 130 124 118 85 52 26
109 88 185 189 202 149 196 145 173 173 149 212 153 116 278 163 156 144 138 130 143 153 150 152 160 168 167 167 164 162 171 172 172 160 160 164 156 166 172 160 170 171 167 168 166 154 151 143 354
103 95 144 229 185 222 183 158 168 158 203 73 148 168 202 190 155 126 129 136 142 153 160 157 156 160 165 174 179 173 183 177 177 172 168 168 174 182 181 175 228 165 177 172 165 178 206 242 277
103 76 181 196 155 238 158 149 178 100 125 117 183 154 209 134 141 135 143 152 161 165 173 169 163 165 168 175 187 184 181 175 179 179 170 165 175 192 186 201 224 215 202 185 186 196 197 236 271
97 139 199 211 186 242 205 168 159 137 142 153 71 19 130 138 157 166 174 179 181 182 186 184 170 170 170 179 173 185 186 189 183 173 175 170 181 193 196 206 221 228 228 213 211 216 226 224 252
159 198 205 207 238 240 172 164 211 126 224 203 182 159 151 153 167 178 187 189 189 188 182 186 180 173 172 185 171 175 180 186 189 189 183 185 183 205 221 235 247 244 250 257 254 264 248 230 242
164 209 218 239 330 21 149 173 202 188 216 193 172 163 157 168 180 186 190 195 187 184 189 185 183 179 182 178 180 185 180 187 195 200 194 181 188 202 214 216 227 224 228 236 243 253 258 257 257
185 190 206 91 351 20 109 145 180 252 296 135 134 161 174 181 189 197 200 196 188 196 195 193 184 187 187 185 181 185 197 192 199 196 198 185 191 201 196 218 213 219 207 217 234 243 249 256 258
205 175 183 246 240 281 223 268 62 252 123 145 156 179 185 191 194 173 188 199 197 201 202 192 195 194 185 191 186 188 191 199 197 200 204 197 195 198 200 209 213 215 203 221 228 230 239 253 253
137 148 312 202 194 223 135 278 231 214 147 167 189 190 193 204 188 201 202 203 200 205 197 199 197 191 191 193 191 185 190 189 197 201 204 201 198 200 197 205 207 211 205 219 229 245 248 256 258
128 99 173 255 153 232 135 251 256 201 149 197 210 218 214 215 209 213 211 211 198 197 200 194 199 193 194 197 193 200 196 186 191 191 192 204 202 200 199 199 210 205 201 204 210 220 243 249 252
334 192 180 310 202 142 179 239 245 172 186 224 224 226 228 241 241 233 220 216 204 201 205 200 195 194 199 202 197 198 194 198 214 195 194 199 203 200 201 209 212 197 202 200 206 223 207 240 252
168 173 199 187 221 199 203 239 247 187 180 223 219 243 241 239 237 228 227 221 216 207 207 206 195 197 192 190 188 173 194 213 212 218 222 200 203 207 202 212 211 198 205 216 198 216 209 223 248
139 178 190 222 270 176 243 237 247 222 212 230 233 230 250 247 255 252 240 226 212 214 203 195 184 193 168 167 178 202 220 213 224 219 216 218 215 203 212 205 198 184 201 216 205 203 221 249 217
137 165 200 288 224 172 292 263 256 229 222 210 228 237 227 231 259 251 234 228 213 209 206 197 193 185 189 186 193 173 186 210 219 212 222 220 217 204 218 207 201 196 202 209 206 202 217 228 176
203 185 168 144 353 114 330 275 232 252 226 231 236 230 233 223 235 241 250 236 221 218 201 191 192 191 191 191 146 100 91 71 168 215 227 221 209 211 221 207 206 205 199 206 207 206 211 235 204
230 164 164 252 72 241 36 278 265 245 240 224 236 236 238 237 237 239 228 231 227 228 199 186 184 180 176 170 183 188 201 200 202 195 207 209 201 211 216 214 212 200 190 214 209 205 210 214 231
227 153 190 163 145 18 208 308 263 277 261 247 235 240 241 241 239 232 227 221 229 189 196 178 143 138 147 169 183 194 209 219 201 197 214 208 149 168 174 193 204 208 210 211 215 200 215 212 231
146 88 57 55 95 258 206 181 215 199 203 248 244 239 241 235 234 240 233 176 149 117 125 133 126 108 110 131 150 189 207 213 196 203 187 162 131 115 102 103 101 90 103 92 52 342 332 276 244
136 133 30 9 3 234 290 190 248 226 239 224 239 268 254 236 220 215 192 174 153 146 140 129 128 115 114 117 115 141 199 212 214 201 163 154 143 119 104 99 92 89 87 90 80 79 69 42 70
201 182 159 183 202 233 166 233 249 230 265 252 253 260 287 245 230 220 207 170 150 148 146 133 133 127 115 106 93 79 72 84 85 105 116 107 107 110 110 96 91 80 64 66 69 64 72 69 69
187 214 161 107 45 63 217 289 291 257 266 251 251 256 254 261 198 190 169 157 150 144 144 139 127 111 99 94 86 75 78 87 95 84 84 98 96 99 94 95 90 78 71 78 82 71 60 85 36
175 142 198 111 139 258 258 269 244 319 272 270 274 258 263 209 188 175 157 145 140 138 124 117 123 128 121 105 95 90 86 83 84 83 87 86 84 93 89 92 90 86 80 71 82 67 57 77 60
170 193 190 156 162 196 265 260 220 248 257 263 273 297 269 227 235 150 139 137 125 115 131 134 128 126 118 115 114 106 95 84 75 74 79 86 87 92 93 93 90 83 76 72 81 79 68 78 74
229 211 202 197 212 238 281 260 276 194 47 291 313 290 255 201 145 134 144 149 152 153 147 145 139 133 130 124 113 103 95 92 88 84 78 78 89 84 99 99 92 87 78 70 70 74 60 70 73